Location: Newark
(34.9500°N, 139.9667°E)
Time: 15:54:40
(UTC+00:00)

Vanguard 1 Rocket - Pass Details

Date: 14 December 2019
Orbit: 650 x 4226 km, 34.3° (Epoch: 26 January)

Event Time Altitude Azimuth Distance (km) Brightness Sun altitude
Rises 09:32:41 0° 232° (SW) 8,464 13.4 -24.5°
Reaches altitude 10° 09:38:53 10° 230° (SW) 7,355 12.8 -25.7°
Maximum altitude 10:02:30 62° 156° (SSE) 3,350 10.0 -30.5°
Enters shadow 10:08:04 46° 103° (ESE) 3,305 9.7 -31.6°
Drops below altitude 10° 10:15:53 10° 80° (E) 4,484 - -33.2°
Sets 10:18:38 0° 77° (ENE) 5,130 - -33.8°
